Miscellaneous Local Product
Issued by NWS Hastings, NE

Home | Current Version | Previous Version | Text Only | Print | Product List | Glossary Off
Versions: 1 2 3 4 5 6 7 8 9 10 11 12 13 14 15 16 17 18 19 20 21 22 23 24 25 26 27 28 29 30 31 32 33 34 35 36 37 38 39 40 41 42 43 44 45 46 47 48 49 50

000
AXUS43 KGID 270202
MISGRI

GID CWA HOURLY WEATHER ROUNDUP
NATIONAL WEATHER SERVICE HASTINGS NE
900 PM CDT TUE AUG 26 2014

NOTE: "FAIR" INDICATES FEW OR NO CLOUDS BELOW 12,000 FEET WITH NO
SIGNIFICANT WEATHER AND/OR OBSTRUCTIONS TO VISIBILITY.

...SOUTH CENTRAL NEBRASKA...

CITY           SKY/WX    TMP DP  RH WIND       PRES   REMARKS
GRAND ISLAND   PTCLDY    73  68  84 E6        30.10R
HASTINGS       CLEAR     72  66  81 E8        30.10R
KEARNEY        CLEAR     72  68  88 NE8       30.11R
ORD            CLEAR     68  65  90 E3        30.11R
YORK           CLEAR     72 N/A N/A E8        30.11R
LEXINGTON      PTCLDY    73  68  86 E5        30.11R
HOLDREGE       PTCLDY    72  69  90 CALM      30.10R
HEBRON         PTCLDY    77  68  73 NE7       30.08R

...NEBRASKA PANHANDLE...

CITY           SKY/WX    TMP DP  RH WIND       PRES   REMARKS
CHADRON        CLOUDY    71  60  68 S14G24    30.10R THUNDER
ALLIANCE       CLOUDY    71  61  70 SE10      30.13R
SCOTTSBLUFF    CLOUDY    71  60  68 VRB3      30.10F
SIDNEY         CLOUDY    70  61  73 SE9       30.16S

...WESTERN AND NORTH CENTRAL NEBRASKA...

CITY           SKY/WX    TMP DP  RH WIND       PRES   REMARKS
VALENTINE      MOCLDY    74  62  66 SE8       30.08S
AINSWORTH      PTCLDY    69  62  78 SE9       30.11S
ONEILL         CLEAR     68  64  86 E6        30.13R
BROKEN BOW     CLEAR     71  66  84 SE5       30.12R
IMPERIAL       MOCLDY    71  64  78 E6        30.12R
NORTH PLATTE   MOCLDY    70  65  84 E8        30.11R
MCCOOK         PTCLDY    74  66  76 NE7       30.09S

...EASTERN NEBRASKA...

CITY           SKY/WX    TMP DP  RH WIND       PRES   REMARKS
NORFOLK        MOCLDY    68  63  84 E7        30.12R
SO SIOUX CITY  CLEAR     68  62  81 NE6       30.13R
TEKAMAH        PTCLDY    71  66  84 E5        30.12R
COLUMBUS       PTCLDY    68  64  88 E6        30.13R
ALBION         CLOUDY    70  65  83 E5        30.13R
OMAHA EPPLEY   MOCLDY    73  66  78 E9        30.11R
OFFUTT AFB     CLOUDY    72  71  99 NE6       30.10S
MILLARD        PTCLDY    75  66  73 CALM      30.11R
LINCOLN        CLEAR     74  67  78 E8        30.11R
NEBRASKA CITY  CLEAR     72  69  90 E5        30.11R
BEATRICE       CLEAR     76  69  79 E7        30.09R
FALLS CITY     PTCLDY    75  71  87 NE5       30.09R

...NORTHERN KANSAS...

CITY           SKY/WX    TMP DP  RH WIND       PRES   REMARKS
GOODLAND       CLOUDY    75  63  66 E6        30.12S
HILL CITY      PTCLDY    78  64  61 E6        30.07R
NORTON         PTCLDY    75  59  57 E3        30.07S
PHILLIPSBURG   CLEAR     81  63  54 E5        30.06R
SMITH CENTER   CLEAR     79  64  61 E5        30.07R
BELOIT         CLEAR     81  70  69 E7        30.04R
HAYS           CLEAR     79  64  61 SE6       30.06R
RUSSELL        PTCLDY    77  68  73 SE8       30.04R
CONCORDIA      CLEAR     75  70  84 E5        30.06R
SALINA         MOCLDY    83  66  56 E5        30.05R
TOPEKA         CLOUDY    78  73  84 SE5       30.07R



USA.gov is the U.S. government's official web portal to all federal, state and local government web resources and services.